X-SAT

Last updated on Fri Sep 11 2026 00:03:31 GMT+0000 (Coordinated Universal Time)

1 37389U 11015C 26253.59471521 .00000149 00000+0 80613-4 0 9995 2 37389 98.3610 226.5904 0015274 91.4831 268.8099 14.25227611799842
UTC large
Height (km)
Speed (km/s)
/
Latitude / Longitude
Inclination (degrees)
Orbital Period (minutes)
Azimuth
Elevation
Range (km)
Doppler Factor

Next 0 passes for location: London (51.5072 / 0.1276)

No passes found over London.
X-SAT